Time,TemperatureF,DewpointF,PressureIn,WindDirection,WindDirectionDegrees,WindSpeedMPH,WindSpeedGustMPH,Humidity,HourlyPrecipIn,Conditions,Clouds,dailyrainin,SoftwareType,DateUTC
2013-02-19 00:01:00,38.0,32.0,29.75,WNW,297,0.0,0.0,78,0.00,,,0.02,,2013-02-19 08:01:00,
2013-02-19 00:11:00,38.0,32.0,29.75,WNW,297,0.0,0.0,78,0.00,,,0.02,,2013-02-19 08:11:00,
2013-02-19 00:21:00,38.0,32.0,29.75,WNW,297,0.0,0.0,78,0.00,,,0.02,,2013-02-19 08:21:00,
2013-02-19 00:31:00,37.0,33.0,29.75,WNW,296,0.0,0.0,85,0.00,,,0.00,,2013-02-19 08:31:00,
2013-02-19 00:41:00,37.0,33.0,29.75,WNW,296,0.0,0.0,85,0.00,,,0.00,,2013-02-19 08:41:00,
2013-02-19 00:52:00,37.0,33.0,29.75,WNW,296,0.0,0.0,85,0.00,,,0.00,,2013-02-19 08:52:00,
2013-02-19 01:01:00,37.0,33.0,29.74,WNW,294,0.0,0.0,84,0.00,,,0.00,,2013-02-19 09:01:00,
2013-02-19 01:11:00,37.0,33.0,29.74,WNW,294,0.0,0.0,84,0.00,,,0.00,,2013-02-19 09:11:00,
2013-02-19 01:21:00,38.0,34.0,29.73,WNW,294,0.0,0.0,84,0.00,,,0.00,,2013-02-19 09:21:00,
2013-02-19 01:31:00,38.0,34.0,29.73,WNW,294,0.0,0.0,85,0.00,,,0.00,,2013-02-19 09:31:00,
2013-02-19 01:41:00,38.0,34.0,29.73,WNW,294,0.0,0.0,85,0.00,,,0.00,,2013-02-19 09:41:00,
2013-02-19 01:53:00,38.0,34.0,29.73,WNW,293,0.0,0.0,85,0.00,,,0.00,,2013-02-19 09:53:00,
2013-02-19 02:01:00,38.0,34.0,29.73,WNW,295,0.0,0.0,86,0.00,,,0.00,,2013-02-19 10:01:00,
2013-02-19 02:11:00,38.0,34.0,29.73,WNW,295,0.0,0.0,86,0.00,,,0.00,,2013-02-19 10:11:00,
2013-02-19 02:21:00,38.0,34.0,29.73,WNW,293,0.0,0.0,84,0.00,,,0.00,,2013-02-19 10:21:00,
2013-02-19 02:31:00,38.0,34.0,29.73,WNW,293,0.0,0.0,84,0.00,,,0.00,,2013-02-19 10:31:00,
2013-02-19 02:41:00,38.0,34.0,29.73,WNW,293,0.0,0.0,84,0.00,,,0.00,,2013-02-19 10:41:00,
2013-02-19 02:52:00,38.0,33.0,29.72,WNW,294,0.0,0.0,81,0.00,,,0.00,,2013-02-19 10:52:00,
2013-02-19 03:01:00,38.0,32.0,29.72,WNW,294,0.0,0.0,80,0.00,,,0.00,,2013-02-19 11:01:00,
2013-02-19 03:11:00,38.0,32.0,29.72,WNW,294,0.0,0.0,80,0.00,,,0.00,,2013-02-19 11:11:00,
2013-02-19 03:21:00,38.0,33.0,29.72,WNW,294,0.0,0.0,82,0.00,,,0.00,,2013-02-19 11:21:00,
2013-02-19 03:31:00,37.0,33.0,29.72,WNW,293,0.0,0.0,84,0.00,,,0.00,,2013-02-19 11:31:00,
2013-02-19 03:42:00,37.0,33.0,29.72,WNW,293,0.0,0.0,84,0.00,,,0.00,,2013-02-19 11:42:00,
2013-02-19 03:52:00,36.0,32.0,29.72,WNW,293,0.0,0.0,84,0.00,,,0.00,,2013-02-19 11:52:00,
2013-02-19 04:01:00,36.0,32.0,29.72,WNW,296,0.0,0.0,84,0.00,,,0.00,,2013-02-19 12:01:00,
2013-02-19 04:12:00,36.0,32.0,29.72,WNW,296,0.0,0.0,84,0.00,,,0.00,,2013-02-19 12:12:00,
2013-02-19 04:21:00,36.0,32.0,29.72,WNW,294,0.0,0.0,84,0.00,,,0.00,,2013-02-19 12:21:00,
2013-02-19 04:32:00,37.0,33.0,29.72,WNW,294,0.0,0.0,84,0.00,,,0.00,,2013-02-19 12:32:00,
2013-02-19 04:42:00,37.0,33.0,29.72,WNW,294,0.0,0.0,84,0.00,,,0.00,,2013-02-19 12:42:00,
2013-02-19 04:52:00,37.0,32.0,29.72,WNW,294,0.0,0.0,82,0.00,,,0.00,,2013-02-19 12:52:00,
2013-02-19 05:01:00,37.0,32.0,29.72,WNW,293,0.0,0.0,82,0.00,,,0.00,,2013-02-19 13:01:00,
2013-02-19 05:11:00,37.0,32.0,29.72,WNW,293,0.0,0.0,82,0.00,,,0.00,,2013-02-19 13:11:00,
2013-02-19 05:22:00,38.0,32.0,29.73,WNW,298,0.0,0.0,79,0.00,,,0.00,,2013-02-19 13:22:00,
2013-02-19 05:31:00,38.0,33.0,29.73,WNW,297,0.0,0.0,81,0.00,,,0.00,,2013-02-19 13:31:00,
2013-02-19 05:41:00,38.0,33.0,29.73,WNW,297,0.0,0.0,81,0.00,,,0.00,,2013-02-19 13:41:00,
2013-02-19 05:52:00,37.0,32.0,29.73,WNW,297,0.0,0.0,83,0.00,,,0.00,,2013-02-19 13:52:00,
2013-02-19 06:01:00,37.0,32.0,29.73,WNW,297,0.0,0.0,83,0.00,,,0.00,,2013-02-19 14:01:00,
2013-02-19 06:11:00,37.0,32.0,29.73,WNW,297,0.0,0.0,83,0.00,,,0.00,,2013-02-19 14:11:00,
2013-02-19 06:21:00,37.0,33.0,29.74,WNW,297,0.0,0.0,85,0.00,,,0.00,,2013-02-19 14:21:00,
2013-02-19 06:32:00,36.0,32.0,29.74,WNW,297,0.0,0.0,86,0.00,,,0.00,,2013-02-19 14:32:00,
2013-02-19 06:41:00,36.0,32.0,29.74,WNW,297,0.0,0.0,86,0.00,,,0.00,,2013-02-19 14:41:00,
2013-02-19 06:52:00,36.0,33.0,29.74,WNW,294,0.0,0.0,87,0.00,,,0.00,,2013-02-19 14:52:00,
2013-02-19 07:01:00,36.0,33.0,29.75,WNW,294,0.0,0.0,87,0.00,,,0.00,,2013-02-19 15:01:00,
2013-02-19 07:11:00,36.0,33.0,29.75,WNW,294,0.0,0.0,87,0.00,,,0.00,,2013-02-19 15:11:00,
2013-02-19 07:21:00,36.0,33.0,29.75,WNW,294,0.0,0.0,87,0.00,,,0.00,,2013-02-19 15:21:00,
2013-02-19 07:31:00,36.0,33.0,29.75,WNW,294,0.0,0.0,87,0.00,,,0.00,,2013-02-19 15:31:00,
2013-02-19 07:41:00,36.0,33.0,29.75,WNW,294,0.0,0.0,87,0.00,,,0.00,,2013-02-19 15:41:00,
2013-02-19 07:52:00,36.0,33.0,29.75,WNW,294,0.0,0.0,87,0.00,,,0.00,,2013-02-19 15:52:00,
2013-02-19 08:01:00,37.0,33.0,29.76,WNW,298,0.0,0.0,86,0.00,,,0.00,,2013-02-19 16:01:00,
2013-02-19 08:11:00,37.0,33.0,29.76,WNW,298,0.0,0.0,86,0.00,,,0.00,,2013-02-19 16:11:00,
2013-02-19 08:21:00,37.0,34.0,29.76,WNW,294,0.0,0.0,87,0.00,,,0.00,,2013-02-19 16:21:00,
2013-02-19 08:31:00,38.0,35.0,29.77,WNW,296,0.0,0.0,90,0.00,,,0.00,,2013-02-19 16:31:00,
2013-02-19 08:41:00,38.0,35.0,29.77,WNW,296,0.0,0.0,90,0.00,,,0.00,,2013-02-19 16:41:00,
2013-02-19 08:52:00,37.0,35.0,29.77,WNW,297,0.0,0.0,91,0.00,,,0.00,,2013-02-19 16:52:00,
2013-02-19 09:01:00,37.0,34.0,29.78,WNW,298,0.0,0.0,89,0.00,,,0.00,,2013-02-19 17:01:00,
2013-02-19 09:11:00,37.0,34.0,29.78,WNW,298,0.0,0.0,89,0.00,,,0.00,,2013-02-19 17:11:00,
2013-02-19 09:21:00,37.0,34.0,29.78,WNW,298,0.0,0.0,87,0.00,,,0.00,,2013-02-19 17:21:00,
2013-02-19 09:31:00,38.0,34.0,29.78,NNW,332,0.0,0.0,84,0.00,,,0.00,,2013-02-19 17:31:00,
2013-02-19 09:41:00,38.0,34.0,29.78,NNW,332,0.0,0.0,84,0.00,,,0.00,,2013-02-19 17:41:00,
2013-02-19 09:52:00,38.0,34.0,29.78,NNW,332,0.0,0.0,84,0.00,,,0.00,,2013-02-19 17:52:00,
2013-02-19 10:01:00,38.0,34.0,29.79,WNW,298,0.0,0.0,85,0.00,,,0.00,,2013-02-19 18:01:00,
2013-02-19 10:11:00,38.0,34.0,29.79,WNW,298,0.0,0.0,85,0.00,,,0.00,,2013-02-19 18:11:00,
2013-02-19 10:21:00,39.0,34.0,29.79,WNW,298,0.0,0.0,83,0.00,,,0.00,,2013-02-19 18:21:00,
2013-02-19 10:31:00,39.0,34.0,29.79,WNW,298,0.0,0.0,83,0.00,,,0.00,,2013-02-19 18:31:00,
2013-02-19 10:41:00,40.0,34.0,29.80,WNW,298,0.0,0.0,78,0.00,,,0.00,,2013-02-19 18:41:00,
2013-02-19 10:52:00,40.0,34.0,29.80,WNW,298,0.0,0.0,78,0.00,,,0.00,,2013-02-19 18:52:00,
2013-02-19 11:01:00,41.0,35.0,29.80,East,100,0.0,0.0,79,0.00,,,0.00,,2013-02-19 19:01:00,
2013-02-19 11:11:00,41.0,35.0,29.80,East,100,0.0,0.0,79,0.00,,,0.00,,2013-02-19 19:11:00,
2013-02-19 11:21:00,41.0,35.0,29.80,East,100,0.0,0.0,79,0.00,,,0.00,,2013-02-19 19:21:00,
2013-02-19 11:31:00,41.0,35.0,29.80,East,100,0.0,0.0,79,0.00,,,0.00,,2013-02-19 19:31:00,
2013-02-19 11:41:00,41.0,35.0,29.80,East,100,0.0,0.0,79,0.00,,,0.00,,2013-02-19 19:41:00,
2013-02-19 11:52:00,41.0,34.0,29.81,WNW,298,0.0,0.0,77,0.00,,,0.00,,2013-02-19 19:52:00,
2013-02-19 12:01:00,41.0,35.0,29.81,WNW,297,0.0,0.0,78,0.00,,,0.00,,2013-02-19 20:01:00,
2013-02-19 12:11:00,41.0,35.0,29.81,WNW,297,0.0,0.0,78,0.00,,,0.00,,2013-02-19 20:11:00,
2013-02-19 12:21:00,41.0,35.0,29.81,WNW,297,0.0,0.0,78,0.00,,,0.00,,2013-02-19 20:21:00,
2013-02-19 12:31:00,43.0,36.0,29.81,WNW,296,0.0,0.0,75,0.00,,,0.00,,2013-02-19 20:31:00,
2013-02-19 12:41:00,43.0,36.0,29.81,WNW,296,0.0,0.0,75,0.00,,,0.00,,2013-02-19 20:41:00,
2013-02-19 12:52:00,43.0,35.0,29.82,WNW,298,0.0,0.0,72,0.00,,,0.00,,2013-02-19 20:52:00,
2013-02-19 13:01:00,43.0,35.0,29.82,WNW,298,0.0,0.0,73,0.00,,,0.00,,2013-02-19 21:01:00,
2013-02-19 13:11:00,43.0,35.0,29.82,WNW,298,0.0,0.0,73,0.00,,,0.00,,2013-02-19 21:11:00,
2013-02-19 13:21:00,43.0,35.0,29.82,WNW,298,0.0,0.0,73,0.00,,,0.00,,2013-02-19 21:21:00,
2013-02-19 13:31:00,43.0,35.0,29.83,WNW,298,0.0,0.0,74,0.00,,,0.00,,2013-02-19 21:31:00,
2013-02-19 13:42:00,43.0,35.0,29.83,WNW,298,0.0,0.0,74,0.00,,,0.00,,2013-02-19 21:42:00,
2013-02-19 13:52:00,43.0,35.0,29.83,WNW,298,0.0,0.0,73,0.00,,,0.00,,2013-02-19 21:52:00,
2013-02-19 14:01:00,44.0,36.0,29.83,NW,314,0.0,0.0,73,0.00,,,0.00,,2013-02-19 22:01:00,
2013-02-19 14:11:00,44.0,36.0,29.83,NW,314,0.0,0.0,73,0.00,,,0.00,,2013-02-19 22:11:00,
2013-02-19 14:21:00,44.0,36.0,29.83,WNW,298,0.0,0.0,72,0.00,,,0.00,,2013-02-19 22:21:00,
2013-02-19 14:31:00,44.0,36.0,29.83,WNW,293,0.0,0.0,74,0.00,,,0.00,,2013-02-19 22:31:00,
2013-02-19 14:41:00,44.0,36.0,29.83,WNW,293,0.0,0.0,74,0.00,,,0.00,,2013-02-19 22:41:00,
2013-02-19 14:52:00,44.0,35.0,29.84,WNW,294,0.0,0.0,71,0.00,,,0.00,,2013-02-19 22:52:00,
2013-02-19 15:01:00,45.0,37.0,29.84,WNW,298,0.0,0.0,72,0.00,,,0.00,,2013-02-19 23:01:00,
2013-02-19 15:11:00,45.0,37.0,29.84,WNW,298,0.0,0.0,72,0.00,,,0.00,,2013-02-19 23:11:00,
2013-02-19 15:21:00,45.0,37.0,29.84,WNW,298,0.0,0.0,72,0.00,,,0.00,,2013-02-19 23:21:00,
2013-02-19 15:31:00,43.0,35.0,29.85,WNW,292,0.0,0.0,74,0.00,,,0.00,,2013-02-19 23:31:00,
2013-02-19 15:41:00,43.0,35.0,29.85,WNW,292,0.0,0.0,74,0.00,,,0.00,,2013-02-19 23:41:00,
2013-02-19 15:52:00,43.0,35.0,29.85,WNW,298,0.0,0.0,74,0.00,,,0.00,,2013-02-19 23:52:00,
2013-02-19 16:01:00,42.0,36.0,29.86,WNW,292,0.0,0.0,78,0.00,,,0.00,,2013-02-20 00:01:00,
2013-02-19 16:11:00,42.0,36.0,29.86,WNW,292,0.0,0.0,78,0.00,,,0.00,,2013-02-20 00:11:00,
2013-02-19 16:21:00,42.0,36.0,29.86,WNW,294,0.0,0.0,80,0.00,,,0.00,,2013-02-20 00:21:00,
2013-02-19 16:31:00,42.0,36.0,29.86,WNW,297,0.0,0.0,79,0.00,,,0.00,,2013-02-20 00:31:00,
2013-02-19 16:41:00,42.0,36.0,29.86,WNW,297,0.0,0.0,79,0.00,,,0.00,,2013-02-20 00:41:00,
2013-02-19 16:52:00,42.0,36.0,29.86,WNW,292,0.0,0.0,80,0.00,,,0.00,,2013-02-20 00:52:00,
2013-02-19 17:02:00,42.0,36.0,29.86,WNW,297,0.0,0.0,80,0.00,,,0.00,,2013-02-20 01:02:00,
2013-02-19 17:11:00,42.0,36.0,29.86,WNW,297,0.0,0.0,80,0.00,,,0.00,,2013-02-20 01:11:00,
2013-02-19 17:21:00,41.0,36.0,29.86,WNW,298,0.0,0.0,81,0.00,,,0.00,,2013-02-20 01:21:00,
2013-02-19 17:31:00,41.0,36.0,29.86,WNW,292,0.0,0.0,82,0.00,,,0.00,,2013-02-20 01:31:00,
2013-02-19 17:41:00,41.0,36.0,29.86,WNW,292,0.0,0.0,82,0.00,,,0.00,,2013-02-20 01:41:00,
2013-02-19 17:52:00,40.0,36.0,29.87,WNW,293,0.0,0.0,84,0.00,,,0.00,,2013-02-20 01:52:00,
2013-02-19 18:01:00,39.0,35.0,29.87,WNW,294,0.0,0.0,87,0.00,,,0.00,,2013-02-20 02:01:00,
2013-02-19 18:11:00,39.0,35.0,29.87,WNW,294,0.0,0.0,87,0.00,,,0.00,,2013-02-20 02:11:00,
2013-02-19 18:21:00,38.0,35.0,29.88,WNW,294,0.0,0.0,89,0.00,,,0.00,,2013-02-20 02:21:00,
2013-02-19 18:31:00,38.0,36.0,29.88,WNW,294,0.0,0.0,92,0.00,,,0.00,,2013-02-20 02:31:00,
2013-02-19 18:41:00,38.0,36.0,29.88,WNW,294,0.0,0.0,92,0.00,,,0.00,,2013-02-20 02:41:00,
2013-02-19 18:52:00,38.0,36.0,29.88,WNW,294,0.0,0.0,93,0.00,,,0.00,,2013-02-20 02:52:00,
2013-02-19 19:01:00,38.0,36.0,29.89,WNW,294,0.0,0.0,93,0.00,,,0.00,,2013-02-20 03:01:00,
2013-02-19 19:11:00,38.0,36.0,29.89,WNW,294,0.0,0.0,93,0.00,,,0.00,,2013-02-20 03:11:00,
2013-02-19 19:21:00,38.0,36.0,29.89,WNW,294,0.0,0.0,93,0.00,,,0.00,,2013-02-20 03:21:00,
2013-02-19 19:32:00,38.0,36.0,29.90,WNW,294,0.0,0.0,93,0.00,,,0.00,,2013-02-20 03:32:00,
2013-02-19 19:41:00,38.0,36.0,29.90,WNW,294,0.0,0.0,93,0.00,,,0.00,,2013-02-20 03:41:00,
2013-02-19 19:52:00,37.0,35.0,29.91,WNW,294,0.0,0.0,94,0.00,,,0.00,,2013-02-20 03:52:00,
2013-02-19 20:01:00,37.0,35.0,29.91,WNW,294,0.0,0.0,94,0.00,,,0.00,,2013-02-20 04:01:00,
2013-02-19 20:11:00,37.0,35.0,29.91,WNW,294,0.0,0.0,94,0.00,,,0.00,,2013-02-20 04:11:00,
2013-02-19 20:21:00,37.0,36.0,29.92,WNW,294,0.0,0.0,96,0.00,,,0.00,,2013-02-20 04:21:00,
2013-02-19 20:31:00,37.0,36.0,29.92,WNW,293,0.0,0.0,97,0.00,,,0.00,,2013-02-20 04:31:00,
2013-02-19 20:42:00,37.0,36.0,29.92,WNW,293,0.0,0.0,97,0.00,,,0.00,,2013-02-20 04:42:00,
2013-02-19 20:52:00,37.0,36.0,29.92,WNW,298,0.0,0.0,97,0.00,,,0.00,,2013-02-20 04:52:00,
2013-02-19 21:01:00,37.0,36.0,29.93,WNW,294,0.0,0.0,97,0.00,,,0.00,,2013-02-20 05:01:00,
2013-02-19 21:12:00,37.0,36.0,29.93,WNW,294,0.0,0.0,97,0.00,,,0.00,,2013-02-20 05:12:00,
2013-02-19 21:22:00,36.0,35.0,29.94,WNW,294,0.0,0.0,97,0.00,,,0.00,,2013-02-20 05:22:00,
2013-02-19 21:32:00,35.0,34.0,29.94,WNW,294,0.0,0.0,98,0.00,,,0.00,,2013-02-20 05:32:00,
2013-02-19 21:42:00,35.0,34.0,29.94,WNW,294,0.0,0.0,98,0.00,,,0.00,,2013-02-20 05:42:00,
2013-02-19 21:52:00,35.0,35.0,29.95,WNW,294,0.0,0.0,99,0.00,,,0.00,,2013-02-20 05:52:00,
2013-02-19 22:01:00,35.0,35.0,29.95,WNW,294,0.0,0.0,100,0.00,,,0.00,,2013-02-20 06:01:00,
2013-02-19 22:11:00,35.0,35.0,29.95,WNW,294,0.0,0.0,100,0.00,,,0.00,,2013-02-20 06:11:00,
2013-02-19 22:21:00,35.0,35.0,29.95,WNW,294,0.0,0.0,100,0.00,,,0.00,,2013-02-20 06:21:00,
2013-02-19 22:31:00,35.0,35.0,29.96,WNW,294,0.0,0.0,100,0.00,,,0.00,,2013-02-20 06:31:00,
2013-02-19 22:42:00,35.0,35.0,29.96,WNW,294,0.0,0.0,100,0.00,,,0.00,,2013-02-20 06:42:00,
2013-02-19 22:52:00,35.0,35.0,29.97,WNW,294,0.0,0.0,100,0.00,,,0.00,,2013-02-20 06:52:00,
2013-02-19 23:01:00,35.0,35.0,29.97,WNW,295,0.0,0.0,100,0.00,,,0.00,,2013-02-20 07:01:00,
2013-02-19 23:11:00,35.0,35.0,29.97,WNW,295,0.0,0.0,100,0.00,,,0.00,,2013-02-20 07:11:00,
2013-02-19 23:21:00,35.0,35.0,29.98,WNW,294,0.0,0.0,100,0.00,,,0.00,,2013-02-20 07:21:00,
2013-02-19 23:31:00,37.0,37.0,29.98,WNW,296,0.0,0.0,100,0.00,,,0.00,,2013-02-20 07:31:00,
2013-02-19 23:41:00,37.0,37.0,29.98,WNW,296,0.0,0.0,100,0.00,,,0.00,,2013-02-20 07:41:00,
2013-02-19 23:51:00,37.0,37.0,29.98,WNW,296,0.0,0.0,100,0.00,,,0.00,,2013-02-20 07:51:00,